CST,Max TemperatureF,Mean TemperatureF,Min TemperatureF,Max Dew PointF,MeanDew PointF,Min DewpointF,Max Humidity, Mean Humidity, Min Humidity, Max Sea Level PressureIn, Mean Sea Level PressureIn, Min Sea Level PressureIn, Max VisibilityMiles, Mean VisibilityMiles, Min VisibilityMiles, Max Wind SpeedMPH, Mean Wind SpeedMPH, Max Gust SpeedMPH,PrecipitationIn, CloudCover, Events, WindDirDegrees
2012-12-1,39,34,30,34,31,28,100,91,81,29.96,29.78,29.67,4,2,0,20,10,23,0.00,8,Fog,219
2012-12-2,41,34,30,35,32,28,100,94,79,29.95,29.83,29.61,8,2,0,22,7,28,0.00,5,Fog,149
2012-12-3,46,36,23,43,34,12,92,78,63,29.90,29.59,29.44,10,9,4,25,16,44,0.01,4,Rain,240
2012-12-4,23,18,12,11,7,5,80,69,53,30.44,30.22,29.93,10,10,10,18,13,23,0.00,1,,318
2012-12-5,35,23,12,23,13,8,84,65,49,30.42,30.10,29.75,10,10,10,21,11,28,0.00,1,,145
2012-12-6,36,26,16,29,21,12,92,79,70,30.02,29.87,29.72,10,10,10,23,12,29,0.00,6,Rain,285
2012-12-7,25,18,12,19,12,9,92,76,62,30.12,30.07,29.95,10,10,7,8,5,,0.00,4,Snow,343
2012-12-8,26,22,17,22,18,12,89,83,78,30.09,30.02,29.95,10,8,0,10,6,,0.00,8,Fog-Snow,120
2012-12-9,25,13,0,23,11,-4,93,81,64,30.18,30.08,29.98,10,5,1,20,11,28,0.07,7,Snow,12
2012-12-10,14,0,-14,1,-6,-19,92,74,52,30.14,29.94,29.69,10,9,2,8,5,,0.00,2,Snow,203
2012-12-11,10,2,-6,5,0,-11,85,79,67,30.01,29.82,29.67,10,8,2,15,6,,0.00,5,Snow,267
2012-12-12,26,14,1,19,11,-3,85,79,69,29.99,29.89,29.78,10,9,7,13,6,,0.00,7,,135
2012-12-13,23,16,8,16,14,5,88,82,72,30.17,30.06,29.95,10,8,2,10,6,,0.00,5,Snow,14
2012-12-14,30,20,10,21,15,7,92,82,66,30.14,30.01,29.82,10,9,7,15,6,,0.00,0,,128
2012-12-15,33,28,23,31,29,21,100,92,84,29.78,29.62,29.53,9,3,0,15,6,,0.35,8,Fog-Rain-Snow,17
2012-12-16,21,16,12,21,16,10,100,91,88,29.86,29.79,29.60,10,9,3,15,10,17,0.00,8,,331
2012-12-17,18,16,15,16,15,13,96,91,86,29.83,29.74,29.64,10,4,0,6,3,,0.00,8,Fog-Snow,194
2012-12-18,24,20,17,23,19,15,96,88,85,29.77,29.69,29.60,9,5,2,9,5,,0.00,8,Snow,149
2012-12-19,27,20,14,25,17,12,96,87,78,30.07,29.90,29.70,10,8,1,13,7,,0.00,6,,238
2012-12-20,19,12,5,17,9,1,92,84,77,30.22,30.10,30.00,10,9,4,16,10,18,0.00,7,Snow,335
2012-12-21,12,3,-6,7,-1,-10,88,83,74,30.35,30.26,30.17,10,9,2,8,5,,0.00,2,,273
2012-12-22,21,10,0,13,5,-5,87,80,71,30.19,30.12,30.03,10,9,4,14,6,,0.00,3,Snow,353
2012-12-23,12,9,6,7,5,2,87,82,71,30.22,30.14,30.04,10,6,2,8,5,,0.03,7,Snow,29
2012-12-24,10,-2,-13,5,-4,-17,85,79,72,30.43,30.20,30.02,10,8,2,13,7,,0.00,4,Snow,336
2012-12-25,5,-8,-20,-2,-14,-25,83,78,73,30.58,30.52,30.43,10,10,10,8,5,,0.00,0,,286
2012-12-26,10,2,-5,3,-5,-10,87,78,70,30.47,30.37,30.22,10,8,2,4,1,,0.00,5,Snow,123
2012-12-27,15,6,-2,11,6,-7,92,83,73,30.33,30.24,30.11,10,7,2,5,1,,0.00,8,Snow,125
2012-12-28,18,12,5,13,8,1,92,85,73,30.20,30.10,29.99,10,6,1,5,1,,0.00,7,Snow,220
2012-12-29,10,0,-9,9,0,-14,92,83,72,30.19,30.06,29.96,10,7,5,10,7,,0.00,5,Snow,252
2012-12-30,17,4,-9,12,2,-14,92,84,77,30.17,30.01,29.82,10,5,0,15,5,23,0.00,5,Fog-Snow,163
2012-12-31,10,-3,-16,4,-10,-22,86,76,61,30.34,30.24,29.98,10,10,7,16,9,23,0.00,0,Snow,304